World > North America > United States > New York > Alburgh  

Alburgh, NY Hourly Weather Updates

Feedback E-mail the Weather

Quick Clicks

Alburgh, NY Weather Maps

°F °C°F °C
Alburgh Weather Map
UTC Time: 4/15/2024, 22:25
Your Time:

Alburgh, NY Regional Weather

Expires:202404152300;;803860
ASUS41 KBTV 152210
RWRBTV
VERMONT REGIONAL WEATHER ROUNDUP
NATIONAL WEATHER SERVICE BURLINGTON VT
600 PM EDT MON APR 15 2024

NOTE: "FAIR" INDICATES FEW OR NO CLOUDS BELOW 12,000 FEET WITH NO 
SIGNIFICANT WEATHER AND/OR OBSTRUCTIONS TO VISIBILITY.

* THESE REPORTS ARE NOT UNDER NWS QUALITY CONTROL AND/OR DO NOT
  REPORT WEATHER SUCH AS PRECIPITATION AND FOG.


NYZ007-026>031-035-052-083-087-152300-
_____NORTHERN NEW YORK_
  
CITY           SKY/WX    TMP DP  RH WIND       PRES   REMARKS
PLATTSBURGH    MOSUNNY   55  33  43 CALM      29.87R TC  13           
SARANAC LAKE   PTSUNNY   50  26  39 SW6       29.87R TC  10           
MASSENA        CLOUDY    54  33  45 SW13      29.88R TC  12           
POTSDAM*       MOSUNNY   55  30  38 SW12G17   29.88S TC  13           
WATERTOWN      SUNNY     53  39  59 SW12      29.93S TC  12           
FT DRUM        SUNNY     55  30  38 W9        29.89S TC  13           
ALBANY         PTSUNNY   60  33  36 NW16G23   29.91R TC  16           
GLENS FALLS    CLOUDY    56  37  49 CALM      29.89R TC  13           

$$

SKY/WX - Weather  TMP - Temperature  DP - Dew Point  RH - Humidity
WIND - Wind Direction/Speed PRES - Barometric Pressure VSB - Visibility
WCI - Wind Chill Index E13G22 Wind - East Wind 13 mph/Gusts of 22 mph

Trending Headlines

Trending Entertainment Headlines

Alburgh Radar Loop

Use the map search tool if you want to place a location marker on the radar map...

Alburgh Quick Facts

National Two Day Weather Forecast


E-mail the Alburgh Weather Forecast

Voice your opinion or tell us about page issues...